Overview Statistics Trail Chart Weather Telemetry Raw packets
 

This is the latest recevied weather packets stored in our database for station/object M0JUI-1. If no packets are shown the sender has not sent any weather packets the latest 10 day(s).

<< 57 58 59 60 61 62 63 >>
Time Temp. Humidity Pressure Rain* Wind** Luminosity Snow
1788249141 14.44° C 1% 1019.9 hPa 0 mm - 187 W/m² -
1788248842 13.89° C 1% 1019.8 hPa 0 mm - 185 W/m² -
1788248542 13.89° C 1% 1019.8 hPa 0 mm - 151 W/m² -
1788248230 13.33° C 1% 1019.6 hPa 0 mm - 138 W/m² -
1788247930 13.33° C 1% 1019.8 hPa 0 mm - 82 W/m² -
1788247630 13.33° C 1% 1019.8 hPa 0 mm - 89 W/m² -
1788247318 12.78° C 2% 1019.7 hPa 0 mm - 85 W/m² -
1788247017 12.78° C 3% 1019.9 hPa 0 mm - 78 W/m² -
1788246717 12.22° C 5% 1019.7 hPa 0 mm - 82 W/m² -
1788246418 12.22° C 8% 1019.7 hPa 0 mm - 72 W/m² -
1788246118 11.67° C 11% 1019.9 hPa 0 mm - 66 W/m² -
1788245817 11.67° C 15% 1019.6 hPa 0 mm - 58 W/m² -
1788245517 11.67° C 17% 1019.8 hPa 0 mm - 53 W/m² -
1788245218 11.11° C 19% 1019.5 hPa 0 mm - 51 W/m² -
1788244917 11.11° C 20% 1019.6 hPa 0 mm - 43 W/m² -
1788244617 10.56° C 21% 1019.4 hPa 0 mm - 41 W/m² -
1788244317 10.56° C 21% 1019.6 hPa 0 mm - 37 W/m² -
1788244018 10.56° C 22% 1019.4 hPa 0 mm - 34 W/m² -
1788243718 10.56° C 22% 1019.3 hPa 0 mm - 24 W/m² -
1788243418 10.56° C 22% 1019.5 hPa 0 mm - 21 W/m² -
1788243117 10° C 22% 1019.5 hPa 0 mm - 27 W/m² -
1788242818 9.44° C 22% 1019.4 hPa 0 mm - 23 W/m² -
1788242518 9.44° C 22% 1019.4 hPa 0 mm - 16 W/m² -
1788242217 9.44° C 22% 1019.2 hPa 0 mm - 15 W/m² -
1788241917 9.44° C 22% 1019.3 hPa 0 mm - 13 W/m² -

* Rain latest hour (hover to see other rain measurements)
** Current wind speed in m/s (hover to see current wind gust speed)